Wind_Speed
24 26 22 19 24 28 27 29 25 31 30 35 26 26 26 24 22 22 16 14 17 18 17 22 25 27 28 30 31 33 34 35 36 34 31 31 31 31 31 32 36 30 34 38
22 28 23 22 30 35 30 33 32 34 36 38 29 27 25 25 23 23 19 18 19 19 17 19 27 29 28 29 30 32 33 35 31 29 27 29 31 31 34 34 34 36 40 31
24 22 18 18 35 31 31 33 27 31 34 31 27 26 24 23 22 22 22 19 17 19 19 21 20 22 25 24 25 27 29 28 28 27 29 30 27 27 27 30 34 39 39 39
15 15 16 25 20 25 29 26 26 28 28 27 25 24 23 27 23 23 22 16 14 16 20 21 16 19 20 19 23 27 26 25 25 25 25 24 25 28 27 27 31 33 32 36
14 16 24 26 27 23 26 28 29 27 30 30 27 22 32 22 19 23 22 15 14 18 15 18 21 20 14 20 23 23 23 22 22 24 24 23 25 25 26 25 26 27 26 26
13 21 12 15 22 27 27 29 33 29 28 25 19 16 22 17 18 16 13 12 14 17 15 13 14 17 21 19 20 21 19 19 18 19 20 20 20 20 20 21 20 20 24 25
18 17 17 24 26 23 19 23 18 26 28 29 24 20 23 9 7 10 10 10 10 13 15 12 11 12 14 14 14 13 12 12 13 13 13 14 13 13 14 16 17 20 22 24
17 22 26 23 23 24 21 25 27 24 19 13 11 15 14 12 11 12 11 11 10 16 19 18 9 13 15 13 11 11 12 11 11 11 10 10 11 12 13 16 17 18 19 20
10 14 17 18 25 25 25 26 29 28 34 30 28 24 13 11 12 14 14 14 11 18 18 16 10 12 16 13 13 14 14 13 12 10 9 10 12 12 12 14 14 15 17 19
23 32 30 30 32 33 32 32 32 30 31 30 29 27 22 13 16 16 14 16 12 15 18 14 11 11 15 14 13 14 14 13 11 9 8 7 9 9 10 13 14 15 16 18
27 33 29 32 30 32 34 34 33 36 34 32 30 28 16 16 15 10 14 22 21 16 18 17 15 15 14 14 13 14 13 11 9 7 5 6 5 6 10 11 12 13 15 15
24 30 25 29 32 32 30 27 30 30 31 18 14 13 12 10 11 12 15 23 21 21 22 19 18 18 15 12 12 12 11 9 7 4 2 1 3 7 10 15 18 20 20 20
33 31 31 34 32 35 29 30 35 13 12 12 15 12 13 11 10 17 23 22 22 22 21 19 18 17 13 12 12 12 10 7 4 3 2 3 5 7 10 9 13 12 16 19
32 27 33 35 24 23 25 24 14 6 7 8 11 15 15 15 20 23 22 24 25 24 21 19 17 15 11 11 11 10 8 8 5 3 3 5 6 8 9 10 11 11 10 10
35 29 33 30 28 27 25 17 14 11 10 9 10 12 15 16 16 18 25 25 25 22 20 18 16 13 11 10 9 9 7 5 4 4 4 6 6 7 8 8 9 9 7 6
30 31 31 31 32 29 23 12 16 13 10 14 15 14 19 23 25 26 24 24 25 17 17 17 14 11 11 9 7 7 6 8 7 5 6 6 5 6 6 5 5 5 4 3
30 29 28 27 27 25 15 13 14 16 14 18 19 27 26 26 24 22 22 19 22 21 17 15 13 11 10 8 6 7 7 6 8 5 5 5 4 4 4 3 3 3 3 2
26 26 23 22 18 10 11 10 9 11 17 20 26 27 24 18 17 21 22 22 23 19 15 15 14 11 9 9 8 7 7 5 4 4 3 4 3 4 4 4 4 5 5 5
24 24 22 19 10 10 14 15 16 22 27 25 21 14 21 23 24 22 21 25 22 16 13 13 11 9 8 8 8 6 5 4 4 4 4 3 4 4 5 6 7 7 6 6
17 8 8 15 18 20 17 18 27 23 30 32 23 19 14 18 27 26 26 17 12 12 16 14 11 8 7 7 8 5 5 5 4 4 3 4 5 6 7 8 7 8 7 7
9 17 21 21 18 17 26 30 31 16 28 33 24 16 16 20 27 30 20 10 13 16 13 13 8 7 6 7 6 6 6 6 5 4 4 5 7 8 8 7 7 7 7 7
13 16 18 21 20 20 27 34 34 28 24 22 23 24 22 18 20 17 13 14 17 16 12 8 7 9 8 10 6 6 5 6 7 6 6 7 7 7 6 6 6 6 6 7
12 14 18 18 21 19 24 26 27 30 26 26 25 23 19 18 16 13 7 12 16 15 9 7 9 11 11 7 7 8 7 7 7 7 7 7 6 6 6 5 6 5 6 5
13 14 15 24 27 20 17 16 22 24 28 25 27 26 25 18 11 8 13 18 15 15 10 10 11 11 11 9 9 9 8 9 8 6 6 6 6 6 6 5 5 4 4 4
13 15 20 14 15 11 20 22 23 22 23 20 18 15 14 12 10 14 17 16 17 11 9 11 13 12 10 10 9 9 8 8 7 5 5 6 6 6 5 5 4 4 4 4
14 10 13 18 17 21 21 22 15 18 20 17 13 12 11 12 17 16 15 15 12 9 9 13 13 11 10 8 8 8 6 6 7 6 7 6 5 5 4 4 5 4 4 3
18 21 19 17 20 21 19 21 19 17 17 16 16 11 14 15 14 13 14 14 11 10 10 10 9 8 8 9 8 8 6 6 7 6 7 7 5 5 4 4 4 4 4 3
Wind_Direction
264 268 268 275 271 269 261 260 262 268 269 270 280 288 290 292 287 288 282 239 222 212 204 203 204 203 202 205 203 202 206 210 214 215 217 218 219 218 214 212 220 214 215 223
272 268 279 271 266 260 258 262 264 268 270 269 283 277 278 279 279 280 273 247 230 215 212 205 205 197 197 200 205 203 208 213 211 207 213 219 218 214 206 216 211 216 224 214
262 273 282 269 247 258 258 255 258 262 265 278 274 273 270 271 272 274 269 259 235 220 214 211 207 197 203 196 205 205 209 216 214 209 207 209 209 207 218 215 212 223 220 216
260 281 255 245 260 259 262 264 260 263 268 273 267 272 278 275 278 267 271 267 233 216 208 202 202 197 189 183 205 203 211 215 211 211 213 214 218 222 221 220 218 217 214 223
231 244 258 272 259 253 257 263 261 264 267 268 269 274 266 263 263 262 261 243 217 205 207 182 192 199 188 195 208 209 210 217 210 213 215 214 219 222 223 221 221 221 222 220
230 234 251 248 267 259 262 264 264 266 271 269 270 262 268 270 266 251 244 213 191 172 162 171 180 171 180 201 205 210 206 207 208 208 209 213 217 219 221 222 224 223 224 225
229 245 261 261 272 282 263 258 256 252 256 250 252 256 263 287 237 222 211 182 175 138 134 137 148 171 185 187 200 201 192 186 187 193 198 206 208 210 213 215 219 224 227 228
245 247 261 250 264 254 264 277 278 275 283 276 276 286 262 243 211 174 158 139 141 114 93 100 139 157 160 150 154 158 152 154 161 172 177 181 191 197 203 211 218 224 228 235
256 246 255 271 291 285 282 263 261 264 275 277 283 282 263 234 188 159 135 117 116 102 104 120 161 153 132 136 137 136 132 135 143 146 161 170 187 194 202 213 220 227 231 238
267 257 262 265 269 270 276 283 286 260 254 258 266 268 276 210 171 155 142 121 125 152 140 140 133 124 126 128 126 121 122 121 131 142 151 171 192 199 209 216 221 229 235 241
272 272 275 267 267 270 270 263 262 265 271 263 260 256 225 191 165 162 141 147 166 160 138 130 130 117 112 110 120 112 105 106 104 110 150 183 203 220 233 241 239 240 244 251
258 260 260 269 275 280 281 269 264 261 261 271 250 201 180 183 154 147 169 163 151 138 126 125 115 104 100 99 101 101 97 90 91 99 94 332 279 274 266 255 254 255 255 252
258 261 263 267 273 275 273 274 274 271 259 210 220 178 156 136 160 153 170 144 137 131 124 118 106 94 88 88 87 85 87 82 79 61 14 301 285 286 292 293 296 278 268 265
256 256 255 252 261 266 265 266 274 238 180 181 163 174 152 151 151 162 140 136 133 125 118 116 111 99 89 85 90 90 86 73 65 32 355 335 316 303 300 302 307 313 315 282
248 244 253 268 273 280 266 246 198 228 218 151 147 137 141 152 142 123 126 130 122 119 120 117 111 100 95 93 88 84 77 62 41 22 3 340 333 320 310 305 298 299 304 308
253 252 255 251 256 256 259 222 209 186 154 137 151 155 147 128 126 124 128 128 126 122 117 116 109 111 104 93 96 91 78 57 52 28 15 2 346 335 325 324 316 318 318 315
248 248 238 244 248 248 202 195 203 189 163 162 156 137 131 122 117 118 115 114 112 109 113 121 116 113 110 112 102 90 78 58 57 44 29 18 6 350 352 355 357 19 26 341
244 248 240 241 249 186 192 187 169 152 151 136 135 132 127 124 128 129 124 121 111 109 116 122 121 127 124 112 97 86 83 80 79 78 61 45 32 30 31 39 44 53 55 54
249 251 230 220 190 151 129 117 122 119 119 111 112 108 115 126 130 128 129 124 120 116 129 132 136 119 110 110 99 99 104 110 93 76 76 82 63 56 55 55 59 59 63 76
239 222 134 139 139 135 122 120 117 112 112 103 105 104 115 118 123 129 126 113 116 131 147 146 132 128 121 124 111 109 106 100 106 100 100 92 86 74 64 61 67 68 67 73
153 139 133 130 127 126 125 130 119 119 119 128 135 140 133 127 136 139 128 121 132 137 143 143 137 135 139 135 122 125 127 125 123 114 102 91 81 77 77 72 68 68 72 80
124 129 127 125 121 115 125 126 122 122 117 115 122 127 130 134 136 113 106 131 150 149 142 139 146 155 155 137 144 135 141 140 124 112 96 86 83 88 81 76 75 76 80 84
110 118 115 119 117 116 127 119 120 127 131 135 140 147 137 141 144 133 123 141 146 151 141 147 162 151 150 142 151 155 145 124 106 102 100 98 99 93 85 90 88 91 90 94
105 97 95 102 106 105 100 106 117 125 132 135 140 143 138 132 116 114 129 141 150 147 147 159 155 161 167 165 158 151 129 112 108 108 107 107 109 102 105 110 104 95 99 104
101 105 110 113 114 112 120 122 111 113 114 119 126 127 130 133 128 133 137 145 149 139 149 164 172 175 170 159 156 135 121 129 129 127 123 118 114 110 111 114 112 115 112 111
119 119 120 121 127 131 128 127 120 124 123 124 127 127 121 122 131 131 133 138 144 148 158 165 171 171 164 154 144 133 144 133 122 124 129 123 119 117 120 122 121 119 115 114
107 112 112 113 120 121 122 126 125 133 140 140 129 130 119 120 125 128 142 147 150 156 155 155 157 160 156 151 149 148 136 121 127 132 127 122 122 123 123 122 115 110 106 111
Height
786 778 780 788 784 773 771 763 769 745 746 722 728 728 722 715 714 711 708 713 716 719 722 729 734 738 743 749 756 762 769 773 776 781 789 794 799 803 807 809 811 816 819 823
795 777 781 788 770 758 759 754 752 742 733 699 719 716 714 710 708 705 701 703 705 710 716 720 725 729 735 740 748 755 759 763 769 773 780 786 790 793 795 797 802 805 809 814
800 785 784 787 750 750 741 735 739 736 711 711 714 711 706 699 700 697 693 691 696 701 705 711 719 724 728 734 744 749 752 758 762 766 769 773 780 786 790 793 795 796 798 803
803 799 803 737 734 726 722 720 718 711 704 702 700 699 695 687 689 687 685 687 690 695 699 705 716 719 726 727 737 742 745 752 755 760 765 770 775 778 783 787 788 789 792 794
801 776 753 741 722 727 721 718 704 704 699 695 691 695 679 681 684 682 678 681 683 689 696 699 708 716 719 725 732 736 738 743 747 753 758 762 767 771 775 779 782 784 789 792
786 782 756 723 713 712 723 710 699 703 691 690 690 700 674 670 673 678 682 682 686 687 693 701 708 711 718 721 727 729 733 738 743 748 751 756 760 765 769 772 777 781 782 784
775 774 739 722 717 715 730 694 684 682 677 679 684 676 666 670 672 677 682 682 687 687 692 700 703 712 716 720 725 729 732 735 740 744 748 753 758 761 765 768 771 774 775 776
759 761 741 716 715 718 698 697 686 676 675 671 669 667 667 669 672 676 680 685 692 691 696 704 712 715 719 721 727 730 732 734 738 743 747 750 755 758 760 763 765 767 769 770
746 723 705 698 699 693 693 689 681 688 676 670 670 666 670 671 676 679 681 686 696 694 700 706 715 718 716 724 726 727 729 734 739 742 745 748 752 754 756 760 760 761 763 764
736 704 705 702 694 690 691 685 677 671 668 666 660 659 661 667 672 675 680 685 699 703 704 713 717 720 719 723 725 727 729 732 736 740 742 746 750 751 753 754 754 755 757 757
709 694 706 687 687 682 676 673 669 663 661 658 655 655 663 664 668 674 677 686 699 702 705 713 717 719 721 722 726 728 730 734 736 740 743 746 746 748 750 750 751 752 752 753
691 691 687 676 672 673 663 655 652 651 647 642 643 653 664 667 669 673 682 687 696 701 706 714 717 719 723 725 727 728 730 733 736 740 742 743 745 746 745 745 746 746 746 748
682 682 679 669 667 666 661 655 650 642 639 645 653 659 659 666 675 676 684 689 696 703 709 714 717 721 725 726 728 730 734 737 739 740 741 742 743 743 742 742 740 740 740 741
663 668 660 655 647 647 644 639 635 633 641 643 646 656 656 661 674 681 681 691 698 703 709 716 721 725 728 729 730 732 735 737 738 740 741 741 742 742 741 740 738 737 736 736
646 653 643 641 644 637 629 628 631 636 636 637 643 648 654 668 675 679 687 695 700 707 714 719 723 726 728 731 733 734 737 738 739 740 740 739 740 740 740 739 739 738 737 736
634 638 638 638 630 627 622 624 623 628 633 637 648 657 662 669 678 685 694 698 701 710 715 721 725 728 729 732 735 736 736 736 737 739 739 740 741 741 741 741 740 739 738 738
619 617 619 614 611 608 614 620 620 620 625 635 645 655 669 674 682 691 696 703 706 710 717 723 727 728 731 734 736 736 737 738 739 742 743 742 742 743 741 741 740 738 738 738
594 593 597 598 599 606 610 615 618 623 630 641 653 661 665 673 684 694 699 705 709 715 720 722 725 731 733 734 735 736 738 741 742 743 743 742 744 744 743 742 740 739 738 739
580 579 581 587 597 606 611 617 624 630 641 649 661 667 674 681 687 694 700 705 711 715 722 726 731 733 735 735 736 738 740 742 743 743 743 744 744 744 743 742 741 741 741 741
573 571 573 583 595 602 612 622 628 636 643 653 671 677 684 686 686 696 702 707 713 717 723 728 730 734 736 738 740 741 742 743 745 745 746 745 744 743 743 744 743 741 743 743
568 573 580 589 600 608 609 622 628 641 649 661 672 681 685 687 692 697 703 708 716 720 725 728 732 735 738 739 741 742 743 744 745 746 746 745 742 743 742 744 745 745 745 746
575 581 591 596 604 613 622 627 633 645 655 665 675 684 689 695 700 702 705 708 715 721 726 731 735 736 738 740 743 744 746 745 745 744 744 743 745 743 745 745 746 747 748 748
591 595 598 606 608 620 631 634 641 649 661 671 679 687 690 694 699 704 709 714 717 723 728 732 733 735 739 742 743 745 745 744 743 743 744 744 747 747 747 748 749 750 750 751
599 605 607 612 617 624 635 646 652 661 668 676 679 685 691 697 704 708 709 715 720 725 729 731 733 737 740 742 743 744 743 742 744 746 746 746 746 747 748 750 751 752 752 753
607 613 618 623 631 640 647 654 659 666 672 680 688 694 698 701 703 709 713 718 722 725 728 732 737 740 740 741 743 742 741 741 743 746 748 748 748 749 751 752 752 754 754 755
615 622 627 634 638 645 650 656 664 672 678 686 693 698 701 704 707 711 715 719 724 728 732 735 737 739 741 741 742 741 746 745 743 747 749 750 750 751 752 753 754 755 755 756
626 630 636 644 648 653 659 664 670 679 684 690 695 701 702 705 710 716 720 725 728 731 733 735 737 739 740 741 742 745 747 744 746 748 749 750 752 753 754 755 755 756 757 757